Flag for U.S.A. Weather past 2 weeks in Wheaton, Illinois, U.S.A.

Now
49 °F

Clear.


Feels Like: 46 °F
Forecast: 49 / 72 °F
Wind: 6 mph from Southeast

Location: Dupage Airport

Current Time: Oct 1, 2014 at 7:30:46 AM

Latest Report: Oct 1, 2014 at 6:52 AM


Visibility: 10 mi

Pressure: 30.00 "Hg

Humidity: 86%

Dew point: 45 °F

Location of WheatonLocation

Historic Weather in Wheaton — Graph

°F

Wheaton temperature yesterday

Maximum temperature yesterday: 58 °F (at 2:52 PM)
Minimum temperature yesterday: 48 °F (at 6:52 AM)
Average temperature yesterday: 53 °F

Past Weeks' High & Low Weather Summary

 TemperatureHumidityPressure
High84 °F (Sep 29, 1:52 PM)97% (Sep 18, 7:52 AM)30.35 "Hg (Sep 18, 7:52 AM)
Low41 °F (Sep 16, 5:52 AM)36% (Sep 19, 3:52 PM)29.72 "Hg (Sep 20, 11:52 PM)
Average60 °F71%30.11 "Hg
* Reported Sep 16 5:52 AM — Oct 1 5:52 AM, Wheaton, Weather by CustomWeather, © 2014

Note: Actual official high and low records may vary slightly from our data, if they occured in-between our weather recording intervals... More about our weather records

Advertising

Wheaton weather history for previous 24 hours

 ConditionsComfort  
Time TempWeatherWind HumidityBarometerVisibility
5:52 AM
Oct 1
49 °FClear.6 mph84%30.00 "Hg10 mi
4:52 AM50 °FClear.5 mph80%30.00 "Hg10 mi
4:01 AM52 °FPassing clouds.6 mph77%29.99 "Hg10 mi
2:52 AM55 °FOvercast.7 mph74%30.00 "Hg10 mi
1:52 AM53 °FPassing clouds.9 mph77%29.99 "Hg10 mi
12:52 AM54 °FOvercast.3 mph80%30.00 "Hg10 mi
11:52 PM
Sep 30
54 °FOvercast.8 mph80%30.00 "Hg10 mi
10:52 PM54 °FOvercast.5 mph83%30.02 "Hg10 mi
9:52 PM54 °FOvercast.5 mph80%30.03 "Hg10 mi
8:52 PM53 °FOvercast.6 mph83%30.03 "Hg10 mi
7:52 PM54 °FOvercast.8 mph77%30.01 "Hg10 mi
6:52 PM54 °FOvercast.7 mph74%30.02 "Hg10 mi
5:52 PM55 °FOvercast.9 mph69%30.01 "Hg10 mi
4:52 PM57 °FOvercast.9 mph67%30.01 "Hg10 mi
3:52 PM57 °FOvercast.12 mph67%30.01 "Hg10 mi
2:52 PM58 °FOvercast.10 mph65%30.02 "Hg10 mi
1:52 PM57 °FOvercast.9 mph67%30.02 "Hg10 mi
12:52 PM57 °FOvercast.8 mph67%30.04 "Hg10 mi
11:52 AM55 °FOvercast.7 mph69%30.05 "Hg10 mi
10:52 AM53 °FOvercast.8 mph74%30.06 "Hg10 mi
9:52 AM52 °FOvercast.12 mph77%30.06 "Hg10 mi
8:52 AM49 °FLow clouds.12 mph84%30.06 "Hg10 mi
7:52 AM49 °FLow clouds.12 mph84%30.06 "Hg10 mi
Weather by CustomWeather, © 2014

See weather overviewHow to use our weather pages